sat.trackr.live / text

‹ back to catalog

STARLINK-30082

NORAD 57509 · 2023-113Q

PAYLOAD ACTIVE UNKNOWN

§ Identity

Operator
Country
US
Launch date
2023-08-07
Launch site
AFETR
Launch vehicle
Mass (kg)
RCS (m²)

Purposes: comms

External: N2YO · Heavens-Above · Gunter

§ Orbital elements

Epoch: 2026-09-20T07:49:09.246144Z

Period
94.27 min
Inclination
43.0039°
Eccentricity
0.0001579
Mean motion
15.27578468 rev/d
Perigee alt
482.0 km
Apogee alt
484.1 km
Semi-major
6,861.2 km
B*
8.8654e-5
RAAN
356.7503°
Arg perigee
255.5522°
Mean anomaly
104.5155°
Rev number
17,344

§ Raw data

STARLINK-300821 57509U 23113Q   26263.32580146  .00002178  00000+0  88654-4 0  99962 57509  43.0039 356.7503 0001579 255.5522 104.5155 15.27578468173447

JSON: /api/v1/satellites/57509 · /tle

For live sub-satellite position, see the globe view (requires WebGL).

§ Visibility from observer

Set your observer location to see the next 7 days of passes ≥ 10°. The values pass through the URL so the page stays shareable.

No JS? Fill the form by hand. The geolocation button needs JavaScript.